Location: Unspecified
(0.0000°N, 0.0000°E)
Time: 18:23:16
(UTC+00:00)

Vanguard 1 - Pass Details

Date: 10 October 2020
Orbit: 650 x 3833 km, 34.3° (Epoch: 26 October)

Event Time Altitude Azimuth Distance (km) Brightness Sun altitude
Rises 02:39:22 0° 299° (WNW) 2,983 - -46.5°
Reaches altitude 10° 02:41:25 10° 296° (WNW) 2,155 - -46.0°
Maximum altitude 02:46:07 65° 214° (SW) 947 - -44.8°
Exits shadow 02:50:22 23° 138° (SE) 2,122 12.0 -43.8°
Drops below altitude 10° 02:53:26 10° 133° (SE) 3,291 13.2 -43.0°
Sets 02:57:17 0° 130° (SE) 4,738 14.2 -42.1°
